TRA69L EHRD-ELLX

Flight info

Callsign TRA69L
Flight time N/A
Altitude 23000
Route WOODY DCT REMBA
Aircraft A20N/M-SDE2E3FGHIRWXY/LB1

Departure

Time 2026-05-04 17:12
Airport Rotterdam The Hague Airport (EHRD)

Arrival

Time N/A
Airport Luxembourg-Findel International Airport (ELLX)
Time Latitude Longitude Altitude Speed Heading
2026-05-04 16:48 51.94997 4.43444 1 ft 0 kts 326°
2026-05-04 17:04 51.95058 4.43496 0 ft 9 kts 51°
2026-05-04 17:04 51.95129 4.43554 0 ft 6 kts 330°
2026-05-04 17:05 51.95221 4.43459 0 ft 6 kts 327°
2026-05-04 17:05 51.95203 4.43300 0 ft 12 kts 236°
2026-05-04 17:06 51.95142 4.43132 0 ft 8 kts 245°
2026-05-04 17:06 51.95136 4.43113 0 ft 0 kts 245°
2026-05-04 17:07 51.95135 4.43110 0 ft 2 kts 245°
2026-05-04 17:07 51.95125 4.43072 0 ft 8 kts 245°
2026-05-04 17:07 51.95112 4.43022 0 ft 0 kts 251°
2026-05-04 17:10 51.95179 4.42881 1 ft 12 kts 325°
2026-05-04 17:11 51.95234 4.42898 2 ft 0 kts 52°
2026-05-04 17:11 51.95344 4.43149 1 ft 76 kts 56°
2026-05-04 17:12 51.95817 4.44286 37 ft 158 kts 55°
2026-05-04 17:12 51.97195 4.47747 1638 ft 204 kts 58°
2026-05-04 17:13 51.99676 4.55293 3000 ft 321 kts 65°
2026-05-04 17:14 51.99256 4.66596 2986 ft 332 kts 126°
2026-05-04 17:14 51.97666 4.69090 2990 ft 303 kts 150°
2026-05-04 17:14 51.93969 4.69789 2988 ft 253 kts 205°
2026-05-04 17:15 51.92595 4.68231 2997 ft 239 kts 226°
2026-05-04 17:15 51.90529 4.63664 3408 ft 255 kts 240°
2026-05-04 17:16 51.88576 4.58932 5799 ft 255 kts 235°
2026-05-04 17:16 51.84059 4.54371 9202 ft 273 kts 195°
2026-05-04 17:17 51.82205 4.53641 10324 ft 279 kts 195°
2026-05-04 17:17 51.75888 4.51068 12310 ft 334 kts 196°
2026-05-04 17:18 51.73619 4.50137 13315 ft 338 kts 196°
2026-05-04 17:18 51.69028 4.48253 15137 ft 346 kts 196°
2026-05-04 17:19 51.64292 4.46311 16924 ft 354 kts 196°
2026-05-04 17:19 51.59452 4.44330 18615 ft 363 kts 195°
2026-05-04 17:20 51.54550 4.42330 20189 ft 368 kts 195°
2026-05-04 17:20 51.49539 4.40289 21715 ft 375 kts 195°
2026-05-04 17:20 51.46997 4.39256 22469 ft 378 kts 195°
2026-05-04 17:21 51.41867 4.37157 22963 ft 381 kts 197°
2026-05-04 17:21 51.36977 4.33956 22965 ft 380 kts 206°
2026-05-04 17:22 51.34599 4.32129 22973 ft 380 kts 206°
2026-05-04 17:22 51.32217 4.30309 22959 ft 381 kts 206°
2026-05-04 17:23 51.25036 4.24851 22960 ft 380 kts 206°
2026-05-04 17:23 51.22678 4.23064 22955 ft 381 kts 206°
2026-05-04 17:23 51.18368 4.21247 22970 ft 384 kts 183°